{"data":{"norad_id":66114,"intl_designator":"2025-237A","name":"STARLINK-35496","alt_names":[],"object_type":"PAYLOAD","status":"ACTIVE","operator":null,"country":"US","launch_date":"2025-10-22","launch_site_code":"AFWTR","launch_vehicle":null,"mission":null,"orbit_class":"UNKNOWN","rcs_meters":null,"size_class":null,"mass_kg":null,"dimensions":null,"purposes":["comms"],"wikipedia_slug":null,"has_3d_model":false,"image_url":null,"decayed_at":null,"tle_current":{"epoch":"2026-09-20T13:34:59.700864Z","epoch_age_seconds":94747,"freshness":"FRESH","line1":"1 66114U 25237A   26263.56596876  .00008753  00000+0  26986-3 0  9994","line2":"2 66114  53.1599 211.1353 0000727 109.0580 251.0501 15.34401492 52494","mean_motion":15.34401492,"eccentricity":7.27e-5,"inclination_deg":53.1599,"raan_deg":211.1353,"arg_perigee_deg":109.058,"mean_anomaly_deg":251.0501,"bstar":0.00026986,"rev_number":5249,"period_min":93.847666826956,"perigee_km":462.2014769092,"apogee_km":463.19613443535,"semimajor_km":6840.8358056723,"source":"CELESTRAK","updated_at":"2026-09-21T09:00:35.806146Z"}}}